Погода в Базалии

Украина / Хмельницкая область     49°43′06″N   26°28′14″E
темп.,
°C
ветер,
м/с
пор.,
м/с
влажн.,
%
обл.,
%
осадки,
мм/ч
давл.,
гПа
погр.,
м
26 июля, пн
пн2600:00+18юв497012 0.0 1018145
03:00+17юв49720 0.0 1018149
06:00+18юв41163100 0.0 1018229
09:00+20юв5106259 0.0 1018355
12:00+26ююв7104588 0.0 10171131
15:00+25ю5105198 0.0 1017430
18:00+27ююв684944 0.0 10171352
21:00+21ююв41167100 0.0 1017242
27 июля, вт
вт2700:00+19ююв4117023 0.0 1018203
03:00+17ююв412725 0.1 1017211
06:00+17ююв5137644 0.2 1017264
09:00+22ю696248 0.2 1016330
12:00+27ю6753100 0.0 1016589
15:00+25ю47629 0.0 1015219
18:00+28ю685417 0.0 1014619
21:00+23ю49785 0.0 1013159
28 июля, ср
ср2800:00+19ю39904 0.5 1015167
03:00+19зюз35938 0.5 101481
06:00+18сз37960 0.1 1015138
09:00+22сз3580100 0.1 1016463
12:00+26сз345836 0.0 10161146
15:00+29зсз33465 0.0 10151572
18:00+28зсз33445 0.0 10141347
21:00+23сз226610 0.1 101417
29 июля, чт
чт2900:00+20ююв227695 0.3 101411
03:00+19юв3384100 1.6 101339
06:00+19ююв239043 0.6 101252
09:00+24юз357210 0.6 1012367
12:00+28з565638 0.0 10131032
15:00+28зсз665535 0.0 10121347
18:00+27з77581 0.0 10121275
21:00+21зсз47840 0.0 1013188
30 июля, пт
пт3000:00+18зсз349444 0.0 101464
03:00+17зсз33950 0.0 101351
06:00+16сз22940 0.0 101321
09:00+22сз11720 0.0 1013330
12:00+27юз22480 0.0 10121087
15:00+29юз33410 0.0 10101270
18:00+29ююз33410 0.0 10091174
21:00+24ююв456277 0.0 100865